Time,TemperatureF,DewpointF,PressureIn,WindDirection,WindDirectionDegrees,WindSpeedMPH,WindSpeedGustMPH,Humidity,HourlyPrecipIn,Conditions,Clouds,dailyrainin,SoftwareType,DateUTC
2013-01-30 14:53:00,2.0,-3.0,-100.00,NW,311,24.0,-999.0,78,-99.99,,,-99.99,,2013-01-30 20:53:00,
2013-01-30 15:03:00,2.0,-4.0,-100.00,NW,317,25.0,-999.0,76,-99.99,,,-99.99,,2013-01-30 21:03:00,
2013-01-30 15:12:00,2.0,-4.0,-100.00,WNW,296,21.0,-999.0,76,-99.99,,,-99.99,,2013-01-30 21:12:00,
2013-01-30 15:23:00,2.0,-4.0,-100.00,NW,317,23.0,-999.0,77,-99.99,,,-99.99,,2013-01-30 21:23:00,
2013-01-30 15:32:00,1.0,-4.0,-100.00,NW,319,22.0,-999.0,77,-99.99,,,-99.99,,2013-01-30 21:32:00,
2013-01-30 15:42:00,2.0,-4.0,-100.00,NW,311,22.0,-999.0,77,-99.99,,,-99.99,,2013-01-30 21:42:00,
2013-01-30 15:52:00,1.0,-5.0,-100.00,NW,306,22.0,-999.0,76,-99.99,,,-99.99,,2013-01-30 21:52:00,
2013-01-30 16:03:00,1.0,-5.0,-100.00,NW,310,23.0,-999.0,76,-99.99,,,-99.99,,2013-01-30 22:03:00,
2013-01-30 16:12:00,1.0,-4.0,-100.00,NW,307,21.0,-999.0,77,-99.99,,,-99.99,,2013-01-30 22:12:00,
2013-01-30 16:22:00,1.0,-5.0,-100.00,NW,324,28.0,-999.0,77,-99.99,,,-99.99,,2013-01-30 22:22:00,
2013-01-30 16:32:00,1.0,-5.0,-100.00,WNW,299,19.0,-999.0,77,-99.99,,,-99.99,,2013-01-30 22:32:00,
2013-01-30 16:42:00,0.0,-6.0,-100.00,NW,314,20.0,-999.0,76,-99.99,,,-99.99,,2013-01-30 22:42:00,
2013-01-30 16:52:00,0.0,-6.0,-100.00,NW,318,16.0,-999.0,77,-99.99,,,-99.99,,2013-01-30 22:52:00,
2013-01-30 17:02:00,0.0,-6.0,-100.00,NW,316,23.0,-999.0,74,-99.99,,,-99.99,,2013-01-30 23:02:00,
2013-01-30 17:12:00,0.0,-6.0,-100.00,NW,310,19.0,-999.0,76,-99.99,,,-99.99,,2013-01-30 23:12:00,
2013-01-30 17:22:00,-1.0,-8.0,-100.00,NW,308,21.0,-999.0,74,-99.99,,,-99.99,,2013-01-30 23:22:00,
2013-01-30 17:32:00,-2.0,-9.0,-100.00,NW,320,20.0,-999.0,73,-99.99,,,-99.99,,2013-01-30 23:32:00,
2013-01-30 17:42:00,-3.0,-9.0,-100.00,NW,307,17.0,-999.0,74,-99.99,,,-99.99,,2013-01-30 23:42:00,
2013-01-30 17:52:00,-3.0,-9.0,-100.00,NW,310,16.0,-999.0,75,-99.99,,,-99.99,,2013-01-30 23:52:00,
2013-01-30 18:02:00,-3.0,-9.0,-100.00,WNW,303,14.0,-999.0,76,-99.99,,,-99.99,,2013-01-31 00:02:00,
2013-01-30 18:11:00,-4.0,-10.0,-100.00,NW,316,16.0,-999.0,74,-99.99,,,-99.99,,2013-01-31 00:11:00,
2013-01-30 18:22:00,-4.0,-10.0,-100.00,WNW,300,17.0,-999.0,74,-99.99,,,-99.99,,2013-01-31 00:22:00,
2013-01-30 18:32:00,-4.0,-11.0,-100.00,WNW,289,17.0,-999.0,74,-99.99,,,-99.99,,2013-01-31 00:32:00,
2013-01-30 18:42:00,-4.0,-11.0,-100.00,WNW,289,20.0,-999.0,73,-99.99,,,-99.99,,2013-01-31 00:42:00,
2013-01-30 18:52:00,-4.0,-11.0,-100.00,WNW,285,17.0,-999.0,73,-99.99,,,-99.99,,2013-01-31 00:52:00,
2013-01-30 19:02:00,-4.0,-11.0,-100.00,WNW,297,17.0,-999.0,73,-99.99,,,-99.99,,2013-01-31 01:02:00,
2013-01-30 19:12:00,-4.0,-11.0,-100.00,WNW,297,16.0,-999.0,74,-99.99,,,-99.99,,2013-01-31 01:12:00,
2013-01-30 19:21:00,-5.0,-11.0,-100.00,WNW,294,20.0,-999.0,74,-99.99,,,-99.99,,2013-01-31 01:21:00,
2013-01-30 19:32:00,-5.0,-11.0,-100.00,WNW,300,21.0,-999.0,74,-99.99,,,-99.99,,2013-01-31 01:32:00,
2013-01-30 19:42:00,-5.0,-11.0,-100.00,WNW,300,21.0,-999.0,74,-99.99,,,-99.99,,2013-01-31 01:42:00,
2013-01-30 19:52:00,-5.0,-11.0,-100.00,WNW,287,22.0,-999.0,74,-99.99,,,-99.99,,2013-01-31 01:52:00,
2013-01-30 20:01:00,-5.0,-12.0,-100.00,WNW,300,19.0,-999.0,74,-99.99,,,-99.99,,2013-01-31 02:01:00,
2013-01-30 20:12:00,-5.0,-12.0,-100.00,WNW,303,19.0,-999.0,74,-99.99,,,-99.99,,2013-01-31 02:12:00,
2013-01-30 20:21:00,-6.0,-12.0,-100.00,NW,316,22.0,-999.0,73,-99.99,,,-99.99,,2013-01-31 02:21:00,
2013-01-30 20:32:00,-6.0,-13.0,-100.00,WNW,295,20.0,-999.0,72,-99.99,,,-99.99,,2013-01-31 02:32:00,
2013-01-30 20:42:00,-6.0,-13.0,-100.00,WNW,295,20.0,-999.0,72,-99.99,,,-99.99,,2013-01-31 02:42:00,
2013-01-30 20:52:00,-6.0,-13.0,-100.00,WNW,295,20.0,-999.0,72,-99.99,,,-99.99,,2013-01-31 02:52:00,
2013-01-30 21:03:00,-7.0,-13.0,-100.00,NW,311,23.0,-999.0,72,-99.99,,,-99.99,,2013-01-31 03:03:00,
2013-01-30 21:11:00,-7.0,-13.0,-100.00,NW,315,16.0,-999.0,73,-99.99,,,-99.99,,2013-01-31 03:11:00,
2013-01-30 21:21:00,-7.0,-13.0,-100.00,WNW,295,21.0,-999.0,74,-99.99,,,-99.99,,2013-01-31 03:21:00,
2013-01-30 21:32:00,-7.0,-14.0,-100.00,WNW,302,19.0,-999.0,73,-99.99,,,-99.99,,2013-01-31 03:32:00,
2013-01-30 21:42:00,-8.0,-14.0,-100.00,WNW,282,15.0,-999.0,73,-99.99,,,-99.99,,2013-01-31 03:42:00,
2013-01-30 21:51:00,-8.0,-14.0,-100.00,WNW,289,13.0,-999.0,73,-99.99,,,-99.99,,2013-01-31 03:51:00,
2013-01-30 22:02:00,-8.0,-14.0,-100.00,NW,304,18.0,-999.0,73,-99.99,,,-99.99,,2013-01-31 04:02:00,
2013-01-30 22:11:00,-8.0,-14.0,-100.00,WNW,292,18.0,-999.0,73,-99.99,,,-99.99,,2013-01-31 04:11:00,
2013-01-30 22:22:00,-8.0,-15.0,-100.00,WNW,298,21.0,-999.0,73,-99.99,,,-99.99,,2013-01-31 04:22:00,
2013-01-30 22:32:00,-9.0,-15.0,-100.00,WNW,293,18.0,-999.0,73,-99.99,,,-99.99,,2013-01-31 04:32:00,
2013-01-30 22:41:00,-9.0,-15.0,-100.00,West,280,20.0,-999.0,73,-99.99,,,-99.99,,2013-01-31 04:41:00,
2013-01-30 22:51:00,-9.0,-15.0,-100.00,WNW,294,21.0,-999.0,73,-99.99,,,-99.99,,2013-01-31 04:51:00,
2013-01-30 23:03:00,-9.0,-15.0,-100.00,WNW,289,17.0,-999.0,73,-99.99,,,-99.99,,2013-01-31 05:03:00,
2013-01-30 23:11:00,-9.0,-15.0,-100.00,WNW,294,18.0,-999.0,73,-99.99,,,-99.99,,2013-01-31 05:11:00,
2013-01-30 23:22:00,-9.0,-15.0,-100.00,WNW,297,24.0,-999.0,73,-99.99,,,-99.99,,2013-01-31 05:22:00,
2013-01-30 23:32:00,-9.0,-15.0,-100.00,WNW,297,24.0,-999.0,73,-99.99,,,-99.99,,2013-01-31 05:32:00,
2013-01-30 23:42:00,-9.0,-15.0,-100.00,WNW,295,18.0,-999.0,74,-99.99,,,-99.99,,2013-01-31 05:42:00,
2013-01-30 23:52:00,-9.0,-15.0,-100.00,WNW,295,18.0,-999.0,74,-99.99,,,-99.99,,2013-01-31 05:52:00,